![]() |
EMODnet Physics ERDDAP
Easier access to scientific data |
log in|
Brought to you by EMODnet Physics |
| Dataset Title: | NDBC - Collection of dew point temperature (DEWT) TimeSeries - IN SITU MultiPointTimeSeriesObservation
|
| Institution: | NDBC (Dataset ID: TS_DEWT_NDBC) |
| Information: | Summary
| License
| FGDC
| ISO 19115
| Metadata
| Background
| Subset
| Data Access Form
| Make a graph
|
| Name | Last modified | Size | Description | |
|---|---|---|---|---|
| Parent Directory | - | - | ||
| 45029_TS_DEWT_042015.nc | 26-Oct-2024 20:28 | 587301 | ||
| 45029_TS_DEWT_042017.nc | 26-Oct-2024 20:28 | 428623 | ||
| 45029_TS_DEWT_042018.nc | 26-Oct-2024 20:28 | 438875 | ||
| 45029_TS_DEWT_042019.nc | 26-Oct-2024 20:29 | 432762 | ||
| 45029_TS_DEWT_042020.nc | 26-Oct-2024 20:29 | 436322 | ||
| 45029_TS_DEWT_042021.nc | 26-Oct-2024 20:29 | 587322 | ||
| 45029_TS_DEWT_042022.nc | 26-Oct-2024 20:29 | 425764 | ||
| 45029_TS_DEWT_042023.nc | 26-Oct-2024 20:29 | 440244 | ||
| 45029_TS_DEWT_042025.nc | 01-May-2025 04:51 | 431551 | ||
| 45029_TS_DEWT_052013.nc | 26-Oct-2024 20:29 | 587310 | ||
| 45029_TS_DEWT_052014.nc | 26-Oct-2024 20:29 | 587110 | ||
| 45029_TS_DEWT_052015.nc | 26-Oct-2024 20:29 | 587285 | ||
| 45029_TS_DEWT_052016.nc | 26-Oct-2024 20:29 | 440219 | ||
| 45029_TS_DEWT_052017.nc | 26-Oct-2024 20:29 | 437985 | ||
| 45029_TS_DEWT_052018.nc | 26-Oct-2024 20:29 | 587199 | ||
| 45029_TS_DEWT_052019.nc | 26-Oct-2024 20:29 | 587295 | ||
| 45029_TS_DEWT_052020.nc | 26-Oct-2024 20:29 | 440197 | ||
| 45029_TS_DEWT_052021.nc | 26-Oct-2024 20:29 | 440240 | ||
| 45029_TS_DEWT_052022.nc | 26-Oct-2024 20:29 | 587319 | ||
| 45029_TS_DEWT_052023.nc | 26-Oct-2024 20:29 | 437823 | ||
| 45029_TS_DEWT_052025.nc | 01-Jun-2025 04:45 | 587289 | ||
| 45029_TS_DEWT_062013.nc | 26-Oct-2024 20:29 | 588171 | ||
| 45029_TS_DEWT_062014.nc | 26-Oct-2024 20:29 | 588142 | ||
| 45029_TS_DEWT_062015.nc | 26-Oct-2024 20:29 | 588195 | ||
| 45029_TS_DEWT_062016.nc | 26-Oct-2024 20:30 | 588095 | ||
| 45029_TS_DEWT_062017.nc | 26-Oct-2024 20:30 | 426076 | ||
| 45029_TS_DEWT_062018.nc | 26-Oct-2024 20:30 | 439450 | ||
| 45029_TS_DEWT_062019.nc | 26-Oct-2024 20:30 | 437900 | ||
| 45029_TS_DEWT_062020.nc | 26-Oct-2024 20:30 | 438738 | ||
| 45029_TS_DEWT_062021.nc | 26-Oct-2024 20:30 | 438809 | ||
| 45029_TS_DEWT_062022.nc | 26-Oct-2024 20:30 | 436609 | ||
| 45029_TS_DEWT_062023.nc | 26-Oct-2024 20:30 | 588153 | ||
| 45029_TS_DEWT_062025.nc | 01-Jul-2025 04:46 | 435047 | ||
| 45029_TS_DEWT_072012.nc | 26-Oct-2024 20:30 | 588167 | ||
| 45029_TS_DEWT_072013.nc | 26-Oct-2024 20:30 | 588200 | ||
| 45029_TS_DEWT_072014.nc | 26-Oct-2024 20:30 | 436199 | ||
| 45029_TS_DEWT_072015.nc | 26-Oct-2024 20:30 | 425737 | ||
| 45029_TS_DEWT_072016.nc | 26-Oct-2024 20:30 | 440140 | ||
| 45029_TS_DEWT_072017.nc | 26-Oct-2024 20:30 | 440147 | ||
| 45029_TS_DEWT_072018.nc | 26-Oct-2024 20:30 | 440114 | ||
| 45029_TS_DEWT_072019.nc | 26-Oct-2024 20:30 | 433364 | ||
| 45029_TS_DEWT_072020.nc | 26-Oct-2024 20:30 | 588029 | ||
| 45029_TS_DEWT_072021.nc | 26-Oct-2024 20:30 | 588148 | ||
| 45029_TS_DEWT_072022.nc | 26-Oct-2024 20:31 | 588204 | ||
| 45029_TS_DEWT_072023.nc | 26-Oct-2024 20:31 | 439681 | ||
| 45029_TS_DEWT_072025.nc | 01-Aug-2025 04:59 | 439843 | ||
| 45029_TS_DEWT_082012.nc | 26-Oct-2024 20:31 | 440078 | ||
| 45029_TS_DEWT_082013.nc | 26-Oct-2024 20:31 | 437458 | ||
| 45029_TS_DEWT_082014.nc | 26-Oct-2024 20:31 | 588023 | ||
| 45029_TS_DEWT_082015.nc | 26-Oct-2024 20:31 | 588189 | ||
| 45029_TS_DEWT_082016.nc | 26-Oct-2024 20:31 | 588183 | ||
| 45029_TS_DEWT_082017.nc | 26-Oct-2024 20:31 | 588195 | ||
| 45029_TS_DEWT_082018.nc | 26-Oct-2024 20:31 | 431788 | ||
| 45029_TS_DEWT_082019.nc | 26-Oct-2024 20:31 | 588119 | ||
| 45029_TS_DEWT_082020.nc | 26-Oct-2024 20:31 | 588165 | ||
| 45029_TS_DEWT_082021.nc | 26-Oct-2024 20:31 | 588208 | ||
| 45029_TS_DEWT_082022.nc | 26-Oct-2024 20:31 | 588129 | ||
| 45029_TS_DEWT_082023.nc | 26-Oct-2024 20:31 | 440072 | ||
| 45029_TS_DEWT_082025.nc | 30-Aug-2025 04:59 | 439982 | ||
| 45029_TS_DEWT_092012.nc | 26-Oct-2024 20:32 | 440073 | ||
| 45029_TS_DEWT_092013.nc | 26-Oct-2024 20:32 | 440161 | ||
| 45029_TS_DEWT_092014.nc | 26-Oct-2024 20:32 | 440158 | ||
| 45029_TS_DEWT_092015.nc | 26-Oct-2024 20:32 | 588104 | ||
| 45029_TS_DEWT_092016.nc | 26-Oct-2024 20:32 | 588119 | ||
| 45029_TS_DEWT_092017.nc | 26-Oct-2024 20:32 | 588084 | ||
| 45029_TS_DEWT_092018.nc | 26-Oct-2024 20:32 | 588184 | ||
| 45029_TS_DEWT_092019.nc | 26-Oct-2024 20:32 | 588189 | ||
| 45029_TS_DEWT_092020.nc | 26-Oct-2024 20:32 | 440135 | ||
| 45029_TS_DEWT_092021.nc | 26-Oct-2024 20:32 | 439222 | ||
| 45029_TS_DEWT_092022.nc | 26-Oct-2024 20:32 | 428122 | ||
| 45029_TS_DEWT_092023.nc | 26-Oct-2024 20:32 | 440160 | ||
| 45029_TS_DEWT_092024.nc | 10-Jan-2025 21:56 | 438901 | ||
| 45029_TS_DEWT_092025.nc | 01-Oct-2025 04:21 | 588168 | ||
| 45029_TS_DEWT_102012.nc | 26-Oct-2024 20:32 | 588073 | ||
| 45029_TS_DEWT_102013.nc | 26-Oct-2024 20:32 | 432381 | ||
| 45029_TS_DEWT_102014.nc | 26-Oct-2024 20:32 | 588195 | ||
| 45029_TS_DEWT_102015.nc | 26-Oct-2024 20:32 | 419451 | ||
| 45029_TS_DEWT_102016.nc | 26-Oct-2024 20:32 | 587799 | ||
| 45029_TS_DEWT_102017.nc | 26-Oct-2024 20:32 | 439845 | ||
| 45029_TS_DEWT_102018.nc | 26-Oct-2024 20:33 | 439491 | ||
| 45029_TS_DEWT_102019.nc | 26-Oct-2024 20:33 | 588091 | ||
| 45029_TS_DEWT_102020.nc | 26-Oct-2024 20:33 | 588143 | ||
| 45029_TS_DEWT_102021.nc | 26-Oct-2024 20:33 | 588159 | ||
| 45029_TS_DEWT_102022.nc | 26-Oct-2024 20:33 | 588036 | ||
| 45029_TS_DEWT_102023.nc | 26-Oct-2024 20:33 | 587852 | ||
| 45029_TS_DEWT_102024.nc | 12-Jan-2025 20:38 | 438590 | ||
| 45029_TS_DEWT_102025.nc | 01-Nov-2025 06:24 | 438088 | ||
| 45029_TS_DEWT_112017.nc | 26-Oct-2024 20:33 | 438116 | ||
| 45029_TS_DEWT_112023.nc | 26-Oct-2024 20:33 | 439409 | ||
| 45029_TS_DEWT_112024.nc | 20-Jan-2025 13:30 | 438760 | ||
| 45029_TS_DEWT_112025.nc | 15-Nov-2025 07:47 | 438766 | ||